Location: Binningen
(47.7924°N, 8.7261°E)
Time: 08:11:49
(UTC+00:00)

Cosmos 2082 Rocket - Pass Details

Date: 17 May 2021
Orbit: 834 x 853 km, 71.0° (Epoch: 20 June)

Event Time Altitude Azimuth Distance (km) Brightness Sun altitude
Rises 20:08:44 0° 330° (NNW) 3,393 7.1 -10.1°
Reaches altitude 10° 20:11:11 10° 328° (NNW) 2,456 6.1 -10.3°
Maximum altitude 20:16:46 68° 247° (WSW) 904 2.5 -11.0°
Enters shadow 20:22:05 11° 166° (SSE) 2,355 4.0 -11.6°
